Naples, FL

11:44 PM EDT on March 26, 2017 (GMT -0400)
Naples Municipal

Weather History for KAPF - December, 2012

Change the Weather History Date:

Saturday, December 1, 2012

  Actual Average Record
Temperature  
Mean Temperature 71 °F 69 °F  
Max Temperature 82 °F 78 °F 89 °F (1982)
Min Temperature 60 °F 60 °F 37 °F (1979)
Degree Days  
Heating Degree Days 0 1  
Month to date heating degree days 0 1  
Since 1 July heating degree days 13 15  
Cooling Degree Days 6 5  
Month to date cooling degree days 6 5  
Year to date cooling degree days 3972 3824  
Growing Degree Days 22 (Base 50)    
Moisture  
Dew Point 60 °F    
Average Humidity 68    
Maximum Humidity 93    
Minimum Humidity 42    
Precipitation  
Precipitation 0.00 in 0.04 in 1.66 in (1997)
Month to date precipitation 0.00 0.04  
Year to date precipitation 36.15 50.48  
Snow  
Snow 0.00 in - - ()
Month to date snowfall 0.0  
Since 1 July snowfall 0.0  
Snow Depth 0.00 in    
Sea Level Pressure  
Sea Level Pressure 30.16 in    
Wind  
Wind Speed 9 mph (NE)    
Max Wind Speed 17 mph    
Max Gust Speed 22 mph    
Visibility 10 miles    
Events      
T = Trace of Precipitation, MM = Missing Value Source: NWS Daily Summary

Daily Weather History Graph

Daily Weather History Graph

Search for Another Location

Airport or City:

Trip Planner

Search our weather history database for the weather conditions in past years. The results will help you decide how hot, cold, wet, or windy it might be!

Date:

Astronomy

Dec. 01, 2012 Rise Set
Actual Time 6:57 AM EST 5:34 PM EST
Civil Twilight 6:32 AM EST 5:59 PM EST
Nautical Twilight 6:04 AM EST 6:28 PM EST
Astronomical Twilight 5:36 AM EST 6:56 PM EST
Moon 8:18 PM EST (12/1) 9:13 AM EST (12/1)
Length of Visible Light 11h 27m
Length of Day
10h 37m
Waning Gibbous, 92% of the Moon is Illuminated
Dec 1
Waning Gibbous
Dec 6
Last Quarter
Dec 13
New
Dec 20
First Quarter
Dec 28
Full

Hourly Weather History & Observations

Time (EST) Temp. Heat Index Dew Point Humidity Pressure Visibility Wind Dir Wind Speed Gust Speed Precip Events Conditions
12:53 AM 63.0 °F - 60.1 °F 90% 30.15 in 10.0 mi NE 6.9 mph - N/A   Clear
1:53 AM 62.1 °F - 60.1 °F 93% 30.14 in 10.0 mi ENE 4.6 mph - N/A   Clear
2:53 AM 62.1 °F - 60.1 °F 93% 30.15 in 10.0 mi NNE 4.6 mph - N/A   Clear
4:53 AM 63.0 °F - 59.0 °F 87% 30.14 in 10.0 mi NE 4.6 mph - N/A   Clear
5:53 AM 62.1 °F - 57.9 °F 86% 30.14 in 10.0 mi NE 5.8 mph - N/A   Clear
6:53 AM 61.0 °F - 57.9 °F 90% 30.16 in 10.0 mi NNE 5.8 mph - N/A   Clear
7:53 AM 63.0 °F - 57.9 °F 84% 30.17 in 10.0 mi NNE 4.6 mph - N/A   Clear
8:53 AM 66.9 °F - 57.9 °F 73% 30.19 in 10.0 mi NE 9.2 mph - N/A   Clear
9:53 AM 73.0 °F - 60.1 °F 64% 30.20 in 10.0 mi NE 9.2 mph - N/A   Clear
10:53 AM 77.0 °F - 61.0 °F 58% 30.20 in 10.0 mi ENE 15.0 mph - N/A   Clear
11:53 AM 79.0 °F - 60.1 °F 52% 30.19 in 10.0 mi ENE 12.7 mph - N/A   Scattered Clouds
12:53 PM 80.1 °F 80.7 °F 59.0 °F 48% 30.16 in 10.0 mi East 11.5 mph - N/A   Scattered Clouds
1:53 PM 81.0 °F 80.7 °F 55.0 °F 41% 30.13 in 10.0 mi ENE 15.0 mph 20.7 mph N/A   Clear
2:53 PM 82.0 °F 81.7 °F 57.0 °F 42% 30.12 in 10.0 mi NE 13.8 mph 19.6 mph N/A   Scattered Clouds
3:53 PM 80.1 °F 80.6 °F 57.9 °F 47% 30.12 in 10.0 mi ENE 8.1 mph - N/A   Scattered Clouds
4:53 PM 78.1 °F - 61.0 °F 56% 30.12 in 10.0 mi NE 15.0 mph 21.9 mph N/A   Partly Cloudy
5:53 PM 73.0 °F - 60.1 °F 64% 30.14 in 10.0 mi ENE 11.5 mph - N/A   Clear
6:53 PM 71.1 °F - 60.1 °F 68% 30.16 in 10.0 mi NE 9.2 mph - N/A   Clear
7:53 PM 68.0 °F - 61.0 °F 78% 30.17 in 10.0 mi ENE 5.8 mph - N/A   Clear
8:53 PM 66.9 °F - 61.0 °F 81% 30.18 in 10.0 mi NE 5.8 mph - N/A   Clear
9:53 PM 66.0 °F - 62.1 °F 87% 30.19 in 10.0 mi NE 8.1 mph - N/A   Clear
10:53 PM 66.0 °F - 62.1 °F 87% 30.19 in 10.0 mi NE 5.8 mph - N/A   Clear
11:53 PM 64.9 °F - 63.0 °F 93% 30.19 in 10.0 mi NE 8.1 mph - N/A   Clear